Total_Precipitation_Accumulation
0.01 0.05 0.10 0.10 0.06 0.09 0.20 0.24 0.06 0.01 0.00 0.00 0.00 0.00 0.00 0.00 0.01 0.03 0.00 0.00 0.00 0.00 0.00 0.00 0.01 0.01 0.03 0.05 0.05 0.06 0.05 0.02 0.01 0.01 0.03 0.06 0.03 0.01 0.00 0.00 0.00 0.00 0.00 0.00 0.01 0.01 0.01 0.00 0.00
0.01 0.04 0.07 0.07 0.07 0.10 0.21 0.27 0.08 0.03 0.01 0.00 0.00 0.00 0.00 0.00 0.00 0.00 0.00 0.00 0.00 0.00 0.00 0.00 0.00 0.01 0.02 0.03 0.05 0.07 0.06 0.03 0.02 0.04 0.06 0.07 0.04 0.01 0.00 0.00 0.00 0.00 0.00 0.00 0.00 0.01 0.00 0.00 0.00
0.00 0.01 0.04 0.04 0.12 0.13 0.12 0.15 0.03 0.01 0.00 0.00 0.00 0.00 0.00 0.00 0.00 0.00 0.00 0.00 0.00 0.00 0.00 0.01 0.01 0.01 0.02 0.02 0.03 0.07 0.09 0.06 0.05 0.08 0.09 0.07 0.06 0.04 0.02 0.02 0.03 0.02 0.00 0.00 0.00 0.01 0.01 0.00 0.00
0.00 0.00 0.01 0.02 0.10 0.12 0.08 0.06 0.04 0.02 0.00 0.00 0.00 0.00 0.00 0.00 0.00 0.00 0.00 0.00 0.00 0.00 0.00 0.00 0.02 0.02 0.02 0.02 0.02 0.04 0.09 0.08 0.06 0.08 0.11 0.09 0.11 0.12 0.07 0.03 0.04 0.05 0.02 0.01 0.01 0.00 0.00 0.01 0.01
0.00 0.00 0.00 0.02 0.06 0.12 0.10 0.06 0.04 0.02 0.00 0.00 0.00 0.00 0.00 0.00 0.00 0.00 0.00 0.00 0.00 0.00 0.00 0.00 0.02 0.02 0.01 0.02 0.03 0.03 0.05 0.06 0.04 0.05 0.05 0.05 0.08 0.15 0.11 0.07 0.05 0.05 0.03 0.02 0.01 0.01 0.01 0.01 0.01
0.00 0.00 0.00 0.01 0.03 0.06 0.08 0.05 0.04 0.04 0.01 0.01 0.00 0.00 0.00 0.00 0.00 0.00 0.00 0.00 0.00 0.00 0.00 0.00 0.01 0.01 0.01 0.00 0.02 0.04 0.04 0.02 0.01 0.01 0.01 0.01 0.02 0.04 0.06 0.07 0.06 0.04 0.02 0.02 0.01 0.01 0.01 0.02 0.02
0.00 0.00 0.00 0.00 0.01 0.02 0.03 0.03 0.02 0.02 0.01 0.01 0.00 0.01 0.01 0.00 0.00 0.00 0.00 0.00 0.00 0.00 0.00 0.00 0.00 0.01 0.00 0.00 0.01 0.02 0.02 0.02 0.01 0.00 0.00 0.01 0.01 0.02 0.05 0.05 0.05 0.06 0.04 0.03 0.02 0.02 0.02 0.02 0.02
0.00 0.00 0.00 0.00 0.00 0.01 0.01 0.02 0.02 0.01 0.01 0.01 0.00 0.01 0.01 0.00 0.00 0.00 0.00 0.00 0.00 0.00 0.00 0.00 0.01 0.01 0.01 0.01 0.01 0.02 0.02 0.01 0.01 0.00 0.00 0.00 0.01 0.02 0.03 0.03 0.04 0.06 0.07 0.05 0.04 0.03 0.03 0.04 0.03
0.00 0.00 0.00 0.00 0.00 0.00 0.00 0.01 0.02 0.01 0.02 0.02 0.00 0.01 0.01 0.00 0.00 0.00 0.00 0.00 0.00 0.00 0.00 0.00 0.01 0.01 0.01 0.01 0.00 0.01 0.01 0.01 0.01 0.02 0.02 0.02 0.01 0.04 0.08 0.05 0.06 0.06 0.08 0.08 0.08 0.08 0.08 0.07 0.04
0.00 0.00 0.00 0.00 0.00 0.00 0.00 0.01 0.01 0.01 0.02 0.01 0.01 0.02 0.01 0.00 0.00 0.00 0.00 0.00 0.00 0.00 0.00 0.00 0.00 0.01 0.01 0.00 0.00 0.00 0.00 0.00 0.01 0.02 0.05 0.08 0.11 0.10 0.05 0.06 0.09 0.15 0.21 0.17 0.15 0.19 0.14 0.12 0.10
0.00 0.00 0.00 0.00 0.00 0.00 0.00 0.00 0.00 0.01 0.03 0.04 0.05 0.07 0.03 0.01 0.00 0.00 0.00 0.00 0.00 0.00 0.00 0.00 0.00 0.00 0.00 0.00 0.00 0.00 0.00 0.01 0.01 0.01 0.04 0.07 0.06 0.03 0.00 0.03 0.08 0.13 0.20 0.19 0.28 0.35 0.33 0.33 0.31
0.00 0.00 0.00 0.00 0.00 0.00 0.00 0.00 0.00 0.02 0.07 0.12 0.13 0.13 0.07 0.02 0.01 0.00 0.00 0.00 0.00 0.01 0.01 0.00 0.01 0.01 0.01 0.00 0.00 0.00 0.00 0.00 0.00 0.01 0.01 0.02 0.03 0.02 0.03 0.08 0.14 0.15 0.16 0.26 0.26 0.35 0.35 0.28 0.25
0.00 0.00 0.00 0.00 0.00 0.00 0.00 0.00 0.01 0.01 0.04 0.17 0.24 0.17 0.04 0.03 0.02 0.01 0.01 0.01 0.02 0.02 0.02 0.02 0.02 0.03 0.03 0.02 0.01 0.01 0.00 0.00 0.00 0.01 0.01 0.01 0.04 0.07 0.11 0.11 0.13 0.09 0.15 0.23 0.25 0.24 0.32 0.38 0.35
0.00 0.00 0.00 0.00 0.00 0.00 0.00 0.00 0.00 0.02 0.03 0.13 0.22 0.20 0.06 0.03 0.02 0.06 0.10 0.08 0.05 0.05 0.04 0.05 0.06 0.07 0.07 0.07 0.06 0.05 0.04 0.04 0.03 0.03 0.05 0.06 0.09 0.16 0.24 0.24 0.25 0.23 0.28 0.37 0.42 0.44 0.66 0.61 0.54
0.00 0.00 0.00 0.00 0.00 0.00 0.00 0.00 0.01 0.03 0.02 0.08 0.17 0.17 0.08 0.03 0.03 0.04 0.07 0.13 0.19 0.20 0.14 0.13 0.14 0.14 0.18 0.17 0.14 0.15 0.17 0.12 0.10 0.12 0.16 0.18 0.22 0.33 0.43 0.48 0.48 0.54 0.56 0.64 0.69 0.76 0.85 0.68 0.63
0.00 0.00 0.00 0.00 0.00 0.00 0.00 0.00 0.00 0.00 0.01 0.03 0.11 0.20 0.16 0.14 0.15 0.14 0.16 0.25 0.29 0.23 0.21 0.26 0.33 0.32 0.30 0.30 0.32 0.35 0.32 0.27 0.25 0.27 0.31 0.36 0.44 0.57 0.70 0.70 0.68 0.89 0.99 1.03 1.09 1.13 1.08 0.97 0.84
0.00 0.00 0.00 0.00 0.00 0.00 0.00 0.00 0.00 0.01 0.02 0.05 0.10 0.21 0.31 0.38 0.47 0.47 0.37 0.30 0.29 0.31 0.38 0.46 0.50 0.46 0.45 0.50 0.53 0.57 0.58 0.50 0.47 0.50 0.50 0.57 0.68 0.81 0.95 0.87 0.95 1.17 1.26 1.31 1.22 1.31 1.25 1.18 1.08
0.00 0.00 0.00 0.00 0.00 0.00 0.00 0.00 0.01 0.01 0.03 0.07 0.18 0.35 0.51 0.75 0.95 0.82 0.62 0.43 0.36 0.38 0.45 0.46 0.50 0.62 0.80 0.87 0.83 0.83 0.74 0.64 0.64 0.70 0.76 0.85 0.91 1.03 1.20 1.09 1.17 1.36 1.46 1.42 1.44 1.45 1.43 1.32 1.28
0.00 0.00 0.00 0.00 0.00 0.00 0.00 0.00 0.01 0.02 0.03 0.05 0.12 0.34 0.58 0.64 0.75 0.70 0.50 0.43 0.44 0.56 0.61 0.70 0.86 0.95 1.06 1.03 0.91 0.91 0.88 0.91 0.91 0.90 0.89 0.92 0.93 1.04 1.25 1.21 1.32 1.36 1.32 1.36 1.51 1.60 1.43 1.27 1.39
0.00 0.00 0.00 0.00 0.00 0.00 0.00 0.00 0.01 0.02 0.03 0.04 0.06 0.12 0.26 0.38 0.44 0.47 0.42 0.44 0.63 0.81 0.84 0.89 0.92 0.96 1.09 1.26 1.33 1.38 1.44 1.27 1.13 1.09 1.01 0.98 1.06 1.13 1.15 1.17 1.18 1.21 1.30 1.36 1.42 1.61 1.42 1.12 1.27
0.00 0.00 0.00 0.00 0.00 0.00 0.00 0.00 0.00 0.01 0.04 0.08 0.13 0.20 0.28 0.38 0.47 0.52 0.52 0.52 0.61 0.69 0.77 0.90 0.98 1.04 1.16 1.34 1.48 1.52 1.55 1.38 1.27 1.18 1.11 1.02 1.05 1.04 1.06 1.07 1.18 1.34 1.42 1.33 1.34 1.41 1.34 1.09 1.08
0.00 0.00 0.00 0.00 0.00 0.00 0.00 0.00 0.00 0.01 0.04 0.10 0.17 0.27 0.36 0.44 0.49 0.53 0.55 0.54 0.56 0.60 0.71 0.88 1.01 1.06 1.16 1.29 1.38 1.37 1.37 1.25 1.25 1.27 1.16 1.07 1.01 0.98 0.98 1.01 1.05 1.08 1.11 1.09 1.03 1.12 1.23 1.18 1.03
0.00 0.00 0.00 0.00 0.00 0.00 0.00 0.00 0.00 0.01 0.03 0.09 0.19 0.30 0.42 0.49 0.47 0.45 0.49 0.50 0.51 0.58 0.70 0.80 0.89 0.94 0.98 1.01 1.06 1.09 1.08 1.09 1.11 1.05 0.97 0.90 0.86 0.86 0.86 0.83 0.82 0.78 0.79 0.87 0.91 0.97 1.03 1.07 1.03
0.00 0.00 0.00 0.00 0.00 0.00 0.01 0.01 0.01 0.02 0.03 0.08 0.23 0.37 0.51 0.58 0.58 0.57 0.57 0.57 0.57 0.66 0.76 0.81 0.82 0.81 0.79 0.77 0.80 0.84 0.87 0.90 0.90 0.88 0.88 0.84 0.81 0.74 0.71 0.73 0.72 0.70 0.73 0.81 0.85 0.88 0.85 0.90 0.94
0.00 0.01 0.06 0.04 0.01 0.01 0.02 0.03 0.04 0.06 0.04 0.09 0.27 0.48 0.61 0.61 0.56 0.53 0.54 0.55 0.58 0.58 0.58 0.61 0.59 0.55 0.51 0.49 0.51 0.54 0.57 0.61 0.66 0.69 0.68 0.64 0.58 0.55 0.55 0.55 0.62 0.65 0.72 0.73 0.72 0.78 0.83 0.89 0.92
0.02 0.05 0.20 0.18 0.05 0.02 0.02 0.02 0.09 0.11 0.14 0.26 0.41 0.51 0.53 0.49 0.46 0.45 0.41 0.40 0.41 0.41 0.40 0.43 0.45 0.47 0.47 0.43 0.41 0.36 0.33 0.34 0.36 0.40 0.46 0.45 0.43 0.42 0.44 0.51 0.60 0.67 0.70 0.71 0.73 0.72 0.76 0.85 0.90
0.05 0.09 0.11 0.24 0.18 0.12 0.02 0.03 0.10 0.16 0.31 0.53 0.69 0.69 0.61 0.49 0.41 0.37 0.33 0.29 0.27 0.29 0.32 0.38 0.41 0.44 0.48 0.47 0.40 0.34 0.28 0.25 0.26 0.30 0.37 0.39 0.41 0.38 0.40 0.46 0.56 0.69 0.79 0.83 0.82 0.81 0.85 0.97 1.04
0.04 0.06 0.08 0.20 0.22 0.19 0.06 0.04 0.14 0.36 0.50 0.62 0.73 0.66 0.51 0.40 0.31 0.27 0.23 0.22 0.21 0.23 0.27 0.34 0.38 0.37 0.38 0.39 0.37 0.30 0.25 0.24 0.25 0.26 0.29 0.30 0.32 0.34 0.39 0.47 0.54 0.60 0.66 0.71 0.71 0.79 0.89 0.98 1.00
0.06 0.10 0.16 0.25 0.23 0.26 0.22 0.18 0.23 0.37 0.52 0.61 0.62 0.51 0.36 0.27 0.20 0.19 0.19 0.20 0.20 0.20 0.24 0.31 0.37 0.40 0.41 0.40 0.39 0.32 0.26 0.23 0.22 0.21 0.22 0.26 0.29 0.33 0.38 0.43 0.43 0.44 0.46 0.48 0.52 0.63 0.76 0.81 0.78
0.04 0.08 0.17 0.27 0.24 0.25 0.26 0.20 0.14 0.17 0.25 0.32 0.34 0.31 0.26 0.21 0.18 0.21 0.23 0.23 0.21 0.22 0.27 0.33 0.38 0.43 0.47 0.49 0.50 0.45 0.39 0.34 0.30 0.26 0.23 0.22 0.24 0.28 0.31 0.33 0.33 0.33 0.37 0.43 0.49 0.58 0.65 0.69 0.66